Wetterdaten: Dienstag, 16.02.2016
Datum Zeit Temp. A. Mod.Schuppen Aussentemp2 Feuchte A. Luftdruck Regen Wind Richtung Richtung Sonnenschein Helligkeit Solar
16.02.2016 00:00 -1,6 C -4,9 C 4,2 C 79 % 1029,0 hPa 0,0 l/m 0,3 km/h (0 Bft) N 355 0 min 0 lux 0 W/m
16.02.2016 00:05 -1,6 C -4,9 C 4,2 C 80 % 1029,0 hPa 0,0 l/m 0,1 km/h (0 Bft) N 355 0 min 0 lux 0 W/m
16.02.2016 00:10 -1,6 C -5,0 C 4,2 C 80 % 1029,0 hPa 0,0 l/m 0,2 km/h (0 Bft) N 355 0 min 0 lux 0 W/m
16.02.2016 00:14 -1,6 C -5,3 C 4,2 C 80 % 1029,0 hPa 0,0 l/m 0,3 km/h (0 Bft) N 355 0 min 0 lux 0 W/m
16.02.2016 00:20 -1,6 C -5,7 C 4,2 C 80 % 1029,0 hPa 0,0 l/m 0,0 km/h (0 Bft) N 355 0 min 0 lux 0 W/m
16.02.2016 00:25 -1,6 C -6,0 C 4,2 C 80 % 1029,0 hPa 0,0 l/m 0,0 km/h (0 Bft) N 355 0 min 0 lux 0 W/m
16.02.2016 00:30 -1,8 C -6,0 C 4,2 C 80 % 1029,0 hPa 0,0 l/m 5,1 km/h (1 Bft) N-NW 345 0 min 0 lux 0 W/m
16.02.2016 00:35 -1,8 C -6,1 C 4,1 C 80 % 1029,0 hPa 0,0 l/m 0,0 km/h (0 Bft) N-NW 345 0 min 0 lux 0 W/m
16.02.2016 00:40 -1,8 C -6,1 C 4,2 C 80 % 1030,0 hPa 0,0 l/m 0,0 km/h (0 Bft) N-NW 345 0 min 0 lux 0 W/m
16.02.2016 00:44 -1,8 C -6,1 C 4,1 C 81 % 1030,0 hPa 0,0 l/m 0,0 km/h (0 Bft) N-NW 340 0 min 0 lux 0 W/m
16.02.2016 00:50 -1,9 C -6,4 C 4,1 C 81 % 1030,0 hPa 0,0 l/m 0,0 km/h (0 Bft) N-NW 340 0 min 0 lux 0 W/m
16.02.2016 00:55 -1,9 C -6,6 C 4,1 C 81 % 1030,0 hPa 0,0 l/m 0,0 km/h (0 Bft) N-NW 340 0 min 0 lux 0 W/m
16.02.2016 01:00 -2,0 C -6,9 C 4,1 C 81 % 1030,0 hPa 0,0 l/m 0,0 km/h (0 Bft) N-NW 340 0 min 0 lux 0 W/m
16.02.2016 01:04 -2,1 C -6,8 C 4,1 C 81 % 1030,0 hPa 0,0 l/m 0,0 km/h (0 Bft) N-NW 340 0 min 0 lux 0 W/m
16.02.2016 01:10 -2,0 C -6,4 C 4,1 C 81 % 1030,0 hPa 0,0 l/m 0,0 km/h (0 Bft) N-NW 340 0 min 0 lux 0 W/m
16.02.2016 01:15 -1,8 C -5,9 C 4,1 C 81 % 1030,0 hPa 0,0 l/m 0,1 km/h (0 Bft) N-NW 340 0 min 0 lux 0 W/m
16.02.2016 01:20 -1,6 C -5,1 C 4,1 C 82 % 1030,0 hPa 0,0 l/m 1,5 km/h (1 Bft) N-NW 345 0 min 0 lux 0 W/m
16.02.2016 01:25 -1,6 C -4,7 C 4,3 C 82 % 1030,0 hPa 0,0 l/m 7,4 km/h (2 Bft) N22.5 5 0 min 0 lux 0 W/m
16.02.2016 01:30 -1,5 C -4,6 C 4,2 C 82 % 1030,0 hPa 0,0 l/m 3,8 km/h (1 Bft) N 360 0 min 0 lux 0 W/m
16.02.2016 01:34 -1,5 C -4,3 C 4,2 C 82 % 1031,0 hPa 0,0 l/m 3,8 km/h (1 Bft) N 360 0 min 0 lux 0 W/m
16.02.2016 01:40 -1,5 C -3,6 C 4,2 C 82 % 1031,0 hPa 0,0 l/m 0,4 km/h (0 Bft) N 360 0 min 0 lux 0 W/m
16.02.2016 01:45 -1,5 C -3,6 C 4,2 C 82 % 1031,0 hPa 0,0 l/m 0,8 km/h (0 Bft) N 360 0 min 0 lux 0 W/m
16.02.2016 01:50 -1,4 C -2,6 C 4,3 C 82 % 1031,0 hPa 0,0 l/m 11,3 km/h (2 Bft) N22.5 360 0 min 0 lux 0 W/m
16.02.2016 01:55 -1,1 C -2,2 C 4,3 C 82 % 1031,0 hPa 0,0 l/m 9,2 km/h (2 Bft) N22.5 10 0 min 0 lux 0 W/m
16.02.2016 02:00 -1,0 C -2,1 C 4,3 C 82 % 1031,0 hPa 0,0 l/m 5,9 km/h (2 Bft) N 350 0 min 0 lux 0 W/m
16.02.2016 02:05 -1,0 C -2,1 C 4,3 C 82 % 1031,0 hPa 0,0 l/m 3,4 km/h (1 Bft) N 360 0 min 0 lux 0 W/m
16.02.2016 02:10 -0,9 C -2,2 C 4,2 C 82 % 1031,0 hPa 0,0 l/m 4,1 km/h (1 Bft) N 360 0 min 0 lux 0 W/m
16.02.2016 02:15 -0,9 C -2,2 C 4,2 C 82 % 1031,0 hPa 0,0 l/m 3,6 km/h (1 Bft) N 360 0 min 0 lux 0 W/m
16.02.2016 02:20 -0,9 C -2,3 C 4,2 C 82 % 1031,0 hPa 0,0 l/m 0,0 km/h (0 Bft) N 360 0 min 0 lux 0 W/m
16.02.2016 02:24 -0,9 C -2,3 C 4,2 C 82 % 1031,0 hPa 0,0 l/m 0,1 km/h (0 Bft) N 360 0 min 0 lux 0 W/m
16.02.2016 02:30 -0,9 C -2,3 C 4,2 C 82 % 1031,0 hPa 0,0 l/m 3,8 km/h (1 Bft) N 360 0 min 0 lux 0 W/m
16.02.2016 02:35 -0,9 C -2,4 C 4,3 C 82 % 1031,0 hPa 0,0 l/m 5,4 km/h (2 Bft) N 360 0 min 0 lux 0 W/m
16.02.2016 02:40 -0,8 C -2,4 C 4,3 C 82 % 1031,0 hPa 0,0 l/m 7,5 km/h (2 Bft) N-NO 15 0 min 0 lux 0 W/m
16.02.2016 02:45 -0,8 C -2,5 C 4,2 C 82 % 1031,0 hPa 0,0 l/m 7,1 km/h (2 Bft) N-NO 30 0 min 0 lux 0 W/m
16.02.2016 02:50 -0,8 C -2,5 C 4,2 C 82 % 1031,0 hPa 0,0 l/m 5,2 km/h (1 Bft) N-NO 30 0 min 0 lux 0 W/m
16.02.2016 02:54 -0,8 C -2,6 C 4,2 C 82 % 1031,0 hPa 0,0 l/m 0,6 km/h (0 Bft) N-NO 30 0 min 0 lux 0 W/m
16.02.2016 03:00 -0,8 C -2,9 C 4,2 C 82 % 1031,0 hPa 0,0 l/m 0,2 km/h (0 Bft) N-NO 30 0 min 0 lux 0 W/m
16.02.2016 03:05 -0,8 C -3,3 C 4,2 C 82 % 1031,0 hPa 0,0 l/m 0,0 km/h (0 Bft) N-NO 30 0 min 0 lux 0 W/m
16.02.2016 03:10 -0,8 C -3,3 C 4,2 C 82 % 1031,0 hPa 0,0 l/m 0,8 km/h (0 Bft) N-NO 30 0 min 0 lux 0 W/m
16.02.2016 03:14 -0,9 C -3,3 C 4,2 C 82 % 1031,0 hPa 0,0 l/m 4,6 km/h (1 Bft) N-NO 30 0 min 0 lux 0 W/m
16.02.2016 03:20 -1,0 C -3,3 C 4,2 C 82 % 1031,0 hPa 0,0 l/m 4,6 km/h (1 Bft) N-NO 30 0 min 0 lux 0 W/m
16.02.2016 03:25 -1,0 C -3,1 C 4,2 C 82 % 1031,0 hPa 0,0 l/m 6,5 km/h (2 Bft) N-NO22.5 15 0 min 0 lux 0 W/m
16.02.2016 03:30 -1,1 C -3,0 C 4,2 C 82 % 1031,0 hPa 0,0 l/m 6,5 km/h (2 Bft) N-NO22.5 15 0 min 0 lux 0 W/m
16.02.2016 03:35 -1,1 C -3,8 C 4,2 C 82 % 1031,0 hPa 0,0 l/m 4,3 km/h (1 Bft) N 355 0 min 0 lux 0 W/m
16.02.2016 03:40 -1,1 C -4,4 C 4,2 C 82 % 1031,0 hPa 0,0 l/m 0,0 km/h (0 Bft) N 355 0 min 0 lux 0 W/m
16.02.2016 03:45 -1,2 C -4,8 C 4,1 C 82 % 1031,0 hPa 0,0 l/m 0,0 km/h (0 Bft) N 355 0 min 0 lux 0 W/m
16.02.2016 03:50 -1,3 C -5,6 C 4,1 C 82 % 1031,0 hPa 0,0 l/m 0,0 km/h (0 Bft) N 355 0 min 0 lux 0 W/m
16.02.2016 03:55 -1,3 C -6,1 C 4,1 C 82 % 1031,0 hPa 0,0 l/m 0,0 km/h (0 Bft) N 355 0 min 0 lux 0 W/m
16.02.2016 04:00 -1,4 C -6,2 C 4,1 C 82 % 1031,0 hPa 0,0 l/m 0,0 km/h (0 Bft) N 355 0 min 0 lux 0 W/m
16.02.2016 04:05 -1,5 C -6,3 C 4,0 C 82 % 1031,0 hPa 0,0 l/m 0,4 km/h (0 Bft) N 355 0 min 0 lux 0 W/m
16.02.2016 04:10 -1,4 C -6,4 C 4,0 C 82 % 1031,0 hPa 0,0 l/m 0,0 km/h (0 Bft) N 355 0 min 0 lux 0 W/m
16.02.2016 04:15 -1,6 C -6,5 C 4,0 C 82 % 1031,0 hPa 0,0 l/m 0,0 km/h (0 Bft) N 355 0 min 0 lux 0 W/m
16.02.2016 04:20 -1,7 C -6,4 C 3,9 C 82 % 1031,0 hPa 0,0 l/m 0,0 km/h (0 Bft) N 355 0 min 0 lux 0 W/m
16.02.2016 04:25 -1,8 C -6,6 C 3,9 C 82 % 1031,0 hPa 0,0 l/m 0,0 km/h (0 Bft) N 355 0 min 0 lux 0 W/m
16.02.2016 04:29 -1,8 C -6,8 C 3,9 C 82 % 1031,0 hPa 0,0 l/m 0,0 km/h (0 Bft) N 355 0 min 0 lux 0 W/m
16.02.2016 04:35 -1,8 C -6,8 C 3,9 C 82 % 1031,0 hPa 0,0 l/m 0,0 km/h (0 Bft) N 355 0 min 0 lux 0 W/m
16.02.2016 04:40 -1,8 C -6,8 C 3,9 C 83 % 1031,0 hPa 0,0 l/m 0,0 km/h (0 Bft) N 355 0 min 0 lux 0 W/m
16.02.2016 04:45 -1,8 C -6,9 C 3,9 C 83 % 1031,0 hPa 0,0 l/m 0,0 km/h (0 Bft) N 355 0 min 0 lux 0 W/m
16.02.2016 04:50 -1,9 C -6,9 C 3,9 C 83 % 1031,0 hPa 0,0 l/m 0,0 km/h (0 Bft) N 355 0 min 0 lux 0 W/m
16.02.2016 04:55 -2,0 C -6,8 C 3,8 C 83 % 1032,0 hPa 0,0 l/m 0,6 km/h (0 Bft) N22.5 355 0 min 0 lux 0 W/m
16.02.2016 04:59 -2,0 C -6,8 C 3,8 C 83 % 1032,0 hPa 0,0 l/m 0,0 km/h (0 Bft) N-NO 25 0 min 0 lux 0 W/m
16.02.2016 05:05 -2,0 C -6,9 C 3,8 C 83 % 1032,0 hPa 0,0 l/m 0,0 km/h (0 Bft) N-NO 25 0 min 0 lux 0 W/m
16.02.2016 05:10 -2,1 C -6,8 C 3,8 C 83 % 1032,0 hPa 0,0 l/m 0,0 km/h (0 Bft) N-NO 25 0 min 0 lux 0 W/m
16.02.2016 05:15 -2,2 C -7,1 C 3,7 C 83 % 1032,0 hPa 0,0 l/m 0,0 km/h (0 Bft) N-NO 25 0 min 0 lux 0 W/m
16.02.2016 05:19 -2,2 C -7,1 C 3,8 C 83 % 1032,0 hPa 0,0 l/m 0,0 km/h (0 Bft) N-NO 25 0 min 0 lux 0 W/m
16.02.2016 05:25 -2,1 C -6,7 C 3,9 C 84 % 1032,0 hPa 0,0 l/m 6,3 km/h (2 Bft) N-NO 20 0 min 0 lux 0 W/m
16.02.2016 05:30 -2,1 C -6,9 C 3,7 C 84 % 1032,0 hPa 0,0 l/m 0,0 km/h (0 Bft) N-NO 20 0 min 0 lux 0 W/m
16.02.2016 05:35 -2,1 C -6,7 C 3,7 C 84 % 1032,0 hPa 0,0 l/m 0,0 km/h (0 Bft) N-NO 20 0 min 0 lux 0 W/m
16.02.2016 05:40 -2,0 C -6,8 C 3,8 C 84 % 1032,0 hPa 0,0 l/m 0,0 km/h (0 Bft) N-NO 20 0 min 0 lux 0 W/m
16.02.2016 05:45 -2,0 C -6,4 C 3,8 C 84 % 1032,0 hPa 0,0 l/m 0,0 km/h (0 Bft) N-NO 20 0 min 0 lux 0 W/m
16.02.2016 05:50 -2,0 C -6,6 C 3,7 C 84 % 1032,0 hPa 0,0 l/m 0,0 km/h (0 Bft) N-NO 20 0 min 0 lux 0 W/m
16.02.2016 05:55 -2,1 C -6,8 C 3,7 C 84 % 1032,0 hPa 0,0 l/m 0,0 km/h (0 Bft) N-NO 20 0 min 0 lux 0 W/m
16.02.2016 06:00 -2,2 C -6,6 C 3,7 C 84 % 1032,0 hPa 0,0 l/m 0,0 km/h (0 Bft) N-NO 20 0 min 0 lux 0 W/m
16.02.2016 06:05 -2,3 C -6,9 C 3,6 C 84 % 1033,0 hPa 0,0 l/m 0,0 km/h (0 Bft) N-NO 20 0 min 0 lux 0 W/m
16.02.2016 06:10 -2,3 C -7,0 C 3,6 C 84 % 1033,0 hPa 0,0 l/m 0,0 km/h (0 Bft) N-NO 20 0 min 0 lux 0 W/m
16.02.2016 06:15 -2,2 C -7,3 C 3,5 C 84 % 1033,0 hPa 0,0 l/m 0,0 km/h (0 Bft) N-NO 20 0 min 0 lux 0 W/m
16.02.2016 06:20 -2,2 C -7,3 C 3,6 C 84 % 1033,0 hPa 0,0 l/m 0,0 km/h (0 Bft) N-NO 20 0 min 0 lux 0 W/m
16.02.2016 06:25 -2,2 C -7,3 C 3,5 C 84 % 1033,0 hPa 0,0 l/m 0,0 km/h (0 Bft) N-NO 20 0 min 0 lux 0 W/m
16.02.2016 06:30 -2,2 C -7,3 C 3,7 C 84 % 1033,0 hPa 0,0 l/m 0,0 km/h (0 Bft) N-NO 20 0 min 0 lux 0 W/m
16.02.2016 06:35 -2,3 C -7,3 C 3,5 C 84 % 1033,0 hPa 0,0 l/m 0,0 km/h (0 Bft) N-NO 20 0 min 0 lux 0 W/m
16.02.2016 06:40 -2,2 C -7,4 C 3,5 C 84 % 1033,0 hPa 0,0 l/m 0,0 km/h (0 Bft) N-NO 20 0 min 0 lux 0 W/m
16.02.2016 06:45 -2,4 C -7,5 C 3,5 C 84 % 1033,0 hPa 0,0 l/m 0,0 km/h (0 Bft) N-NO 20 0 min 0 lux 0 W/m
16.02.2016 06:50 -2,3 C -7,2 C 3,5 C 84 % 1033,0 hPa 0,0 l/m 0,0 km/h (0 Bft) N-NO 20 0 min 0 lux 0 W/m
16.02.2016 06:55 -2,3 C -7,4 C 3,5 C 84 % 1033,0 hPa 0,0 l/m 0,0 km/h (0 Bft) N-NO 20 0 min 0 lux 0 W/m
16.02.2016 06:59 -2,4 C -7,5 C 3,5 C 84 % 1033,0 hPa 0,0 l/m 0,0 km/h (0 Bft) N-NO 20 0 min 0 lux 0 W/m
16.02.2016 07:05 -2,4 C -7,6 C 3,5 C 84 % 1033,0 hPa 0,0 l/m 0,0 km/h (0 Bft) N-NO 20 0 min 0 lux 0 W/m
16.02.2016 07:10 -2,4 C -7,7 C 3,4 C 84 % 1033,0 hPa 0,0 l/m 0,0 km/h (0 Bft) N-NO 20 0 min 0 lux 0 W/m
16.02.2016 07:15 -2,4 C -7,8 C 3,4 C 84 % 1033,0 hPa 0,0 l/m 0,0 km/h (0 Bft) N-NO 20 0 min 0 lux 0 W/m
16.02.2016 07:19 -2,5 C -7,8 C 3,4 C 85 % 1033,0 hPa 0,0 l/m 0,0 km/h (0 Bft) N-NO 20 0 min 0 lux 0 W/m
16.02.2016 07:25 -2,5 C -7,9 C 3,4 C 85 % 1033,0 hPa 0,0 l/m 0,0 km/h (0 Bft) N-NO 20 0 min 41 lux 0 W/m
16.02.2016 07:30 -2,6 C -7,9 C 3,3 C 85 % 1033,0 hPa 0,0 l/m 0,0 km/h (0 Bft) N-NO 20 0 min 78 lux 0 W/m
16.02.2016 07:35 -2,7 C -7,8 C 3,4 C 85 % 1034,0 hPa 0,0 l/m 0,0 km/h (0 Bft) N-NO 20 0 min 147 lux 0 W/m
16.02.2016 07:40 -2,7 C -7,8 C 3,4 C 85 % 1034,0 hPa 0,0 l/m 0,0 km/h (0 Bft) N-NO 20 0 min 257 lux 0 W/m
16.02.2016 07:45 -2,7 C -7,7 C 3,5 C 85 % 1034,0 hPa 0,0 l/m 0,0 km/h (0 Bft) N-NO 20 0 min 411 lux 0 W/m
16.02.2016 07:50 -2,7 C -7,7 C 3,4 C 85 % 1034,0 hPa 0,0 l/m 0,0 km/h (0 Bft) N-NO 20 0 min 503 lux 0 W/m
16.02.2016 07:55 -2,8 C -7,5 C 3,4 C 85 % 1034,0 hPa 0,0 l/m 0,0 km/h (0 Bft) N-NO 20 0 min 731 lux 5 W/m
16.02.2016 08:00 -2,8 C -7,6 C 3,4 C 85 % 1034,0 hPa 0,0 l/m 0,0 km/h (0 Bft) N-NO 20 0 min 1,00 klux 7 W/m
16.02.2016 08:05 -2,9 C -7,1 C 3,4 C 85 % 1034,0 hPa 0,0 l/m 0,0 km/h (0 Bft) N-NO 20 0 min 1,32 klux 9 W/m
16.02.2016 08:10 -2,9 C -6,8 C 3,3 C 85 % 1034,0 hPa 0,0 l/m 0,0 km/h (0 Bft) N-NO 20 0 min 1,69 klux 12 W/m
16.02.2016 08:15 -2,8 C -6,6 C 3,3 C 85 % 1034,0 hPa 0,0 l/m 0,0 km/h (0 Bft) N-NO 20 0 min 1,90 klux 13 W/m
16.02.2016 08:20 -2,7 C -5,9 C 3,3 C 85 % 1034,0 hPa 0,0 l/m 0,0 km/h (0 Bft) N-NO 20 0 min 2,39 klux 16 W/m
16.02.2016 08:25 -2,7 C -5,5 C 3,4 C 85 % 1034,0 hPa 0,0 l/m 0,0 km/h (0 Bft) N-NO 20 0 min 3,09 klux 21 W/m
16.02.2016 08:30 -2,5 C -4,9 C 3,4 C 86 % 1034,0 hPa 0,0 l/m 0,0 km/h (0 Bft) N-NO 20 0 min 3,26 klux 22 W/m
16.02.2016 08:34 -2,0 C -4,7 C 3,3 C 86 % 1034,0 hPa 0,0 l/m 0,0 km/h (0 Bft) N-NO 15 0 min 3,69 klux 25 W/m
16.02.2016 08:40 -1,8 C -4,5 C 3,3 C 86 % 1034,0 hPa 0,0 l/m 0,0 km/h (0 Bft) N 5 0 min 3,68 klux 25 W/m
16.02.2016 08:45 -1,2 C -4,3 C 3,3 C 85 % 1034,0 hPa 0,0 l/m 0,0 km/h (0 Bft) N 355 0 min 3,91 klux 27 W/m
16.02.2016 08:50 -0,8 C -3,7 C 3,3 C 85 % 1034,0 hPa 0,0 l/m 0,0 km/h (0 Bft) N 355 0 min 4,20 klux 29 W/m
16.02.2016 08:55 -0,3 C -3,1 C 3,3 C 85 % 1034,0 hPa 0,0 l/m 0,0 km/h (0 Bft) N 355 0 min 4,56 klux 31 W/m
16.02.2016 09:00 0,1 C -2,8 C 3,4 C 85 % 1034,0 hPa 0,0 l/m 0,0 km/h (0 Bft) N 355 0 min 4,86 klux 33 W/m
16.02.2016 09:05 0,1 C -2,1 C 3,5 C 85 % 1034,0 hPa 0,0 l/m 0,0 km/h (0 Bft) N 355 0 min 5,72 klux 39 W/m
16.02.2016 09:10 0,5 C -1,4 C 3,5 C 85 % 1035,0 hPa 0,0 l/m 0,0 km/h (0 Bft) N 355 0 min 5,54 klux 38 W/m
16.02.2016 09:15 0,8 C -1,0 C 3,6 C 85 % 1035,0 hPa 0,0 l/m 0,0 km/h (0 Bft) N 355 0 min 5,76 klux 39 W/m
16.02.2016 09:20 0,8 C 0,1 C 3,6 C 85 % 1035,0 hPa 0,0 l/m 0,0 km/h (0 Bft) N 355 5 min 24,5 klux 168 W/m
16.02.2016 09:25 1,2 C 1,0 C 3,6 C 85 % 1035,0 hPa 0,0 l/m 0,0 km/h (0 Bft) N 355 5 min 26,2 klux 179 W/m
16.02.2016 09:30 1,2 C 1,0 C 3,7 C 84 % 1035,0 hPa 0,0 l/m 0,0 km/h (0 Bft) N 355 5 min 27,3 klux 187 W/m
16.02.2016 09:35 0,9 C 3,7 C 3,7 C 84 % 1035,0 hPa 0,0 l/m 0,0 km/h (0 Bft) N 355 5 min 28,2 klux 193 W/m
16.02.2016 09:40 0,7 C 4,5 C 3,7 C 84 % 1035,0 hPa 0,0 l/m 3,5 km/h (1 Bft) N 355 5 min 30,5 klux 209 W/m
16.02.2016 09:45 0,2 C 5,2 C 3,7 C 85 % 1035,0 hPa 0,0 l/m 3,8 km/h (1 Bft) N22.5 360 5 min 32,3 klux 221 W/m
16.02.2016 09:49 0,0 C 5,6 C 3,7 C 85 % 1035,0 hPa 0,0 l/m 5,3 km/h (1 Bft) N 360 4 min 33,5 klux 229 W/m
16.02.2016 09:55 -0,2 C 6,1 C 3,7 C 85 % 1035,0 hPa 0,0 l/m 0,0 km/h (0 Bft) N 360 6 min 34,0 klux 233 W/m
16.02.2016 10:00 -0,4 C 6,9 C 3,7 C 85 % 1035,0 hPa 0,0 l/m 3,7 km/h (1 Bft) N 360 5 min 34,7 klux 237 W/m
16.02.2016 10:05 -0,5 C 7,5 C 3,7 C 85 % 1035,0 hPa 0,0 l/m 5,4 km/h (2 Bft) N 360 5 min 35,8 klux 245 W/m
16.02.2016 10:09 -0,4 C 8,5 C 3,8 C 85 % 1035,0 hPa 0,0 l/m 4,5 km/h (1 Bft) N 360 4 min 36,3 klux 248 W/m
16.02.2016 10:15 -0,3 C 10,5 C 3,8 C 85 % 1035,0 hPa 0,0 l/m 0,6 km/h (0 Bft) N 355 6 min 37,2 klux 254 W/m
16.02.2016 10:20 -0,2 C 10,9 C 3,8 C 85 % 1035,0 hPa 0,0 l/m 3,6 km/h (1 Bft) N 355 5 min 38,1 klux 261 W/m
16.02.2016 10:25 -0,2 C 11,6 C 3,8 C 85 % 1035,0 hPa 0,0 l/m 3,6 km/h (1 Bft) N 355 5 min 38,8 klux 265 W/m
16.02.2016 10:30 -0,2 C 12,8 C 3,8 C 85 % 1035,0 hPa 0,0 l/m 0,2 km/h (0 Bft) N-NW 345 5 min 39,6 klux 271 W/m
16.02.2016 10:35 0,1 C 13,8 C 3,8 C 84 % 1035,0 hPa 0,0 l/m 0,3 km/h (0 Bft) N-NW 340 5 min 40,3 klux 276 W/m
16.02.2016 10:40 0,2 C 14,7 C 3,8 C 83 % 1035,0 hPa 0,0 l/m 0,1 km/h (0 Bft) N-NW 335 5 min 41,6 klux 285 W/m
16.02.2016 10:45 0,3 C 15,1 C 3,8 C 83 % 1035,0 hPa 0,0 l/m 0,0 km/h (0 Bft) N-NW 335 5 min 43,2 klux 295 W/m
16.02.2016 10:50 0,6 C 16,5 C 3,8 C 82 % 1035,0 hPa 0,0 l/m 0,0 km/h (0 Bft) N-NW 335 5 min 43,3 klux 296 W/m
16.02.2016 10:55 1,1 C 16,8 C 3,9 C 81 % 1035,0 hPa 0,0 l/m 0,0 km/h (0 Bft) N-NW 335 5 min 44,5 klux 304 W/m
16.02.2016 11:00 1,2 C 17,3 C 3,9 C 80 % 1035,0 hPa 0,0 l/m 0,0 km/h (0 Bft) N-NW 335 5 min 44,4 klux 304 W/m
16.02.2016 11:05 1,5 C 18,3 C 3,9 C 79 % 1035,0 hPa 0,0 l/m 4,3 km/h (1 Bft) N-NW 330 5 min 43,9 klux 300 W/m
16.02.2016 11:10 1,7 C 18,6 C 3,9 C 77 % 1035,0 hPa 0,0 l/m 4,3 km/h (1 Bft) NW22.5 305 5 min 44,8 klux 306 W/m
16.02.2016 11:15 1,8 C 18,6 C 3,8 C 77 % 1035,0 hPa 0,0 l/m 5,0 km/h (1 Bft) W-SW22.5 250 5 min 45,4 klux 311 W/m
16.02.2016 11:20 1,9 C 18,5 C 3,8 C 76 % 1035,0 hPa 0,0 l/m 0,6 km/h (0 Bft) W-SW 240 5 min 45,9 klux 314 W/m
16.02.2016 11:24 2,0 C 18,6 C 3,9 C 76 % 1035,0 hPa 0,0 l/m 4,6 km/h (1 Bft) W-SW 240 4 min 46,4 klux 317 W/m
16.02.2016 11:30 2,1 C 18,8 C 3,8 C 75 % 1035,0 hPa 0,0 l/m 9,0 km/h (2 Bft) W-SW 240 6 min 48,4 klux 331 W/m
16.02.2016 11:35 2,2 C 19,8 C 3,9 C 75 % 1035,0 hPa 0,0 l/m 5,2 km/h (1 Bft) W-SW 240 5 min 48,4 klux 331 W/m
16.02.2016 11:40 2,3 C 19,8 C 3,9 C 74 % 1035,0 hPa 0,0 l/m 6,5 km/h (2 Bft) W-SW 245 5 min 48,2 klux 330 W/m
16.02.2016 11:45 2,4 C 19,8 C 3,9 C 73 % 1035,0 hPa 0,0 l/m 0,3 km/h (0 Bft) W-SW 245 5 min 47,0 klux 321 W/m
16.02.2016 11:49 2,5 C 20,9 C 3,9 C 74 % 1035,0 hPa 0,0 l/m 0,3 km/h (0 Bft) W-SW 245 4 min 48,4 klux 331 W/m
16.02.2016 11:55 2,7 C 21,3 C 4,0 C 73 % 1035,0 hPa 0,0 l/m 3,1 km/h (1 Bft) W-SW 245 6 min 49,1 klux 336 W/m
16.02.2016 12:00 2,8 C 21,7 C 4,0 C 73 % 1035,0 hPa 0,0 l/m 0,0 km/h (0 Bft) W-SW 245 5 min 49,6 klux 339 W/m
16.02.2016 12:05 3,1 C 22,9 C 4,0 C 71 % 1035,0 hPa 0,0 l/m 8,1 km/h (2 Bft) N-NO22.5 15 5 min 49,2 klux 337 W/m
16.02.2016 12:09 3,2 C 22,0 C 4,0 C 69 % 1035,0 hPa 0,0 l/m 10,0 km/h (2 Bft) NO22.5 40 4 min 49,5 klux 339 W/m
16.02.2016 12:15 3,3 C 20,6 C 4,1 C 67 % 1035,0 hPa 0,0 l/m 7,9 km/h (2 Bft) NO22.5 45 6 min 49,5 klux 339 W/m
16.02.2016 12:20 3,6 C 20,6 C 4,1 C 70 % 1035,0 hPa 0,0 l/m 10,8 km/h (2 Bft) NO22.5 40 5 min 50,7 klux 347 W/m
16.02.2016 12:25 3,6 C 20,7 C 4,1 C 68 % 1035,0 hPa 0,0 l/m 8,7 km/h (2 Bft) N 360 5 min 50,4 klux 345 W/m
16.02.2016 12:30 3,6 C 21,6 C 4,1 C 66 % 1035,0 hPa 0,0 l/m 8,7 km/h (2 Bft) N22.5 350 5 min 50,6 klux 346 W/m
16.02.2016 12:34 3,7 C 20,6 C 4,2 C 66 % 1035,0 hPa 0,0 l/m 15,5 km/h (3 Bft) NO22.5 35 4 min 50,3 klux 344 W/m
16.02.2016 12:40 3,8 C 21,5 C 4,3 C 64 % 1035,0 hPa 0,0 l/m 10,3 km/h (2 Bft) NO45 55 6 min 51,1 klux 350 W/m
16.02.2016 12:45 3,9 C 21,0 C 4,2 C 65 % 1034,9 hPa 0,0 l/m 9,3 km/h (2 Bft) N-NO22.5 20 5 min 50,9 klux 348 W/m
16.02.2016 12:50 4,0 C 20,3 C 4,3 C 64 % 1034,9 hPa 0,0 l/m 11,4 km/h (2 Bft) N22.5 5 5 min 50,7 klux 347 W/m
16.02.2016 12:55 3,9 C 19,9 C 4,3 C 64 % 1034,9 hPa 0,0 l/m 10,3 km/h (2 Bft) N22.5 10 5 min 50,5 klux 345 W/m
16.02.2016 13:00 4,0 C 19,3 C 4,3 C 64 % 1034,9 hPa 0,0 l/m 14,6 km/h (3 Bft) N-NO45 20 5 min 50,8 klux 347 W/m
16.02.2016 13:05 4,3 C 20,6 C 4,4 C 65 % 1034,9 hPa 0,0 l/m 5,1 km/h (1 Bft) O-NO 75 5 min 50,3 klux 344 W/m
16.02.2016 13:10 4,5 C 20,8 C 4,4 C 64 % 1034,9 hPa 0,0 l/m 11,3 km/h (2 Bft) N-NO22.5 30 5 min 51,1 klux 350 W/m
16.02.2016 13:15 4,5 C 21,4 C 4,4 C 63 % 1034,9 hPa 0,0 l/m 13,2 km/h (3 Bft) O-NO67.5 60 5 min 51,7 klux 354 W/m
16.02.2016 13:20 4,8 C 21,6 C 4,4 C 63 % 1034,9 hPa 0,0 l/m 10,9 km/h (2 Bft) O45 80 5 min 51,2 klux 350 W/m
16.02.2016 13:25 4,7 C 21,1 C 4,5 C 62 % 1034,9 hPa 0,0 l/m 9,9 km/h (2 Bft) NO22.5 40 5 min 51,7 klux 354 W/m
16.02.2016 13:30 4,7 C 21,3 C 4,5 C 62 % 1034,9 hPa 0,0 l/m 10,5 km/h (2 Bft) NO22.5 35 5 min 50,5 klux 345 W/m
16.02.2016 13:35 4,7 C 21,3 C 4,6 C 62 % 1034,9 hPa 0,0 l/m 14,7 km/h (3 Bft) N-NO67.5 25 5 min 49,9 klux 341 W/m
16.02.2016 13:40 5,1 C 20,6 C 4,6 C 62 % 1034,9 hPa 0,0 l/m 11,7 km/h (2 Bft) O22.5 80 5 min 49,2 klux 337 W/m
16.02.2016 13:45 5,1 C 20,8 C 4,6 C 62 % 1034,9 hPa 0,0 l/m 12,4 km/h (2 Bft) N-NO45 15 5 min 49,9 klux 341 W/m
16.02.2016 13:49 5,1 C 19,4 C 4,6 C 60 % 1033,9 hPa 0,0 l/m 11,3 km/h (2 Bft) N-NO22.5 30 4 min 49,2 klux 337 W/m
16.02.2016 13:55 5,2 C 20,2 C 4,7 C 61 % 1033,9 hPa 0,0 l/m 6,9 km/h (2 Bft) N 5 6 min 48,4 klux 331 W/m
16.02.2016 14:00 5,5 C 20,6 C 4,8 C 61 % 1033,9 hPa 0,0 l/m 12,5 km/h (2 Bft) N-NO22.5 30 5 min 49,0 klux 335 W/m
16.02.2016 14:05 5,6 C 20,7 C 4,8 C 61 % 1033,9 hPa 0,0 l/m 19,6 km/h (3 Bft) N-NO67.5 25 5 min 48,5 klux 332 W/m
16.02.2016 14:09 5,8 C 21,2 C 4,9 C 59 % 1033,9 hPa 0,0 l/m 6,5 km/h (2 Bft) NO 40 4 min 48,1 klux 329 W/m
16.02.2016 14:15 5,8 C 20,3 C 5,0 C 56 % 1033,9 hPa 0,0 l/m 15,2 km/h (3 Bft) O-NO45 60 6 min 48,3 klux 330 W/m
16.02.2016 14:20 5,9 C 21,5 C 5,1 C 56 % 1033,9 hPa 0,0 l/m 18,4 km/h (3 Bft) O22.5 80 0 min 9,1 klux 62 W/m
16.02.2016 14:25 6,0 C 21,6 C 5,3 C 56 % 1033,9 hPa 0,0 l/m 13,5 km/h (3 Bft) O-NO45 70 5 min 46,1 klux 315 W/m
16.02.2016 14:30 6,0 C 20,5 C 5,7 C 56 % 1033,9 hPa 0,0 l/m 10,1 km/h (2 Bft) NO45 55 0 min 29,6 klux 202 W/m
16.02.2016 14:34 6,0 C 19,2 C 6,3 C 56 % 1033,9 hPa 0,0 l/m 15,1 km/h (3 Bft) NO45 35 0 min 8,61 klux 59 W/m
16.02.2016 14:40 6,0 C 17,8 C 7,2 C 55 % 1033,9 hPa 0,0 l/m 15,7 km/h (3 Bft) NO45 50 0 min 8,62 klux 59 W/m
16.02.2016 14:45 6,0 C 17,6 C 8,4 C 55 % 1033,9 hPa 0,0 l/m 18,4 km/h (3 Bft) N-NO45 30 0 min 8,72 klux 60 W/m
16.02.2016 14:50 6,1 C 16,7 C 9,5 C 56 % 1033,9 hPa 0,0 l/m 18,4 km/h (3 Bft) N-NO45 30 0 min 8,72 klux 60 W/m
16.02.2016 14:55 6,1 C 16,4 C 9,8 C 54 % 1033,9 hPa 0,0 l/m 16,0 km/h (3 Bft) NO22.5 45 0 min 8,55 klux 58 W/m
16.02.2016 15:00 6,1 C 16,6 C 9,6 C 53 % 1033,9 hPa 0,0 l/m 15,1 km/h (3 Bft) NO22.5 35 0 min 8,15 klux 56 W/m
16.02.2016 15:05 6,4 C 16,9 C 8,9 C 54 % 1033,9 hPa 0,0 l/m 16,3 km/h (3 Bft) NO45 35 0 min 7,92 klux 54 W/m
16.02.2016 15:10 6,4 C 16,2 C 8,0 C 54 % 1033,9 hPa 0,0 l/m 12,9 km/h (3 Bft) O-NO22.5 60 0 min 7,70 klux 53 W/m
16.02.2016 15:15 6,6 C 16,2 C 7,5 C 54 % 1032,9 hPa 0,0 l/m 13,8 km/h (3 Bft) NO22.5 45 0 min 7,51 klux 51 W/m
16.02.2016 15:20 6,8 C 16,6 C 6,7 C 54 % 1033,9 hPa 0,0 l/m 11,1 km/h (2 Bft) NO45 55 0 min 7,40 klux 51 W/m
16.02.2016 15:25 6,8 C 17,3 C 6,3 C 51 % 1032,9 hPa 0,0 l/m 11,7 km/h (2 Bft) O-NO22.5 65 0 min 7,26 klux 50 W/m
16.02.2016 15:30 6,8 C 17,3 C 6,1 C 51 % 1032,9 hPa 0,0 l/m 19,6 km/h (3 Bft) O22.5 85 0 min 7,12 klux 49 W/m
16.02.2016 15:35 6,8 C 17,2 C 6,0 C 49 % 1032,9 hPa 0,0 l/m 14,5 km/h (3 Bft) O22.5 90 0 min 7,05 klux 48 W/m
16.02.2016 15:40 6,8 C 16,9 C 5,8 C 49 % 1032,9 hPa 0,0 l/m 12,8 km/h (3 Bft) O22.5 85 0 min 7,01 klux 48 W/m
16.02.2016 15:45 6,7 C 16,3 C 5,7 C 50 % 1032,9 hPa 0,0 l/m 17,5 km/h (3 Bft) O22.5 80 0 min 6,99 klux 48 W/m
16.02.2016 15:50 6,9 C 15,4 C 5,6 C 51 % 1032,9 hPa 0,0 l/m 8,7 km/h (2 Bft) O-NO22.5 75 0 min 7,09 klux 48 W/m
16.02.2016 15:55 7,0 C 15,7 C 5,6 C 52 % 1032,9 hPa 0,0 l/m 12,3 km/h (2 Bft) O-NO22.5 60 0 min 7,13 klux 49 W/m
16.02.2016 16:00 6,7 C 15,6 C 5,5 C 51 % 1032,9 hPa 0,0 l/m 7,6 km/h (2 Bft) O-SO45 120 0 min 9,0 klux 62 W/m
16.02.2016 16:05 6,9 C 15,2 C 5,5 C 51 % 1032,9 hPa 0,0 l/m 8,9 km/h (2 Bft) NO45 50 5 min 27,9 klux 191 W/m
16.02.2016 16:10 6,8 C 14,6 C 5,4 C 50 % 1032,9 hPa 0,0 l/m 13,3 km/h (3 Bft) O45 100 5 min 27,4 klux 187 W/m
16.02.2016 16:15 6,7 C 12,5 C 5,3 C 50 % 1032,9 hPa 0,0 l/m 16,5 km/h (3 Bft) NO45 50 5 min 26,4 klux 181 W/m
16.02.2016 16:20 6,8 C 12,5 C 5,3 C 51 % 1032,9 hPa 0,0 l/m 16,8 km/h (3 Bft) N-NO22.5 30 5 min 25,1 klux 172 W/m
16.02.2016 16:25 6,6 C 12,1 C 5,3 C 50 % 1032,9 hPa 0,0 l/m 10,2 km/h (2 Bft) O22.5 95 5 min 23,5 klux 161 W/m
16.02.2016 16:30 6,6 C 11,4 C 5,2 C 51 % 1032,9 hPa 0,0 l/m 15,7 km/h (3 Bft) O-NO45 65 5 min 21,8 klux 149 W/m
16.02.2016 16:34 6,6 C 10,9 C 5,2 C 51 % 1032,9 hPa 0,0 l/m 8,0 km/h (2 Bft) O22.5 85 4 min 20,8 klux 142 W/m
16.02.2016 16:40 6,3 C 10,4 C 5,2 C 50 % 1032,9 hPa 0,0 l/m 8,0 km/h (2 Bft) O22.5 85 6 min 20,4 klux 140 W/m
16.02.2016 16:45 6,3 C 10,0 C 5,1 C 51 % 1032,9 hPa 0,0 l/m 14,1 km/h (3 Bft) O-NO45 75 5 min 16,6 klux 114 W/m
16.02.2016 16:50 6,3 C 9,1 C 5,2 C 52 % 1032,9 hPa 0,0 l/m 13,9 km/h (3 Bft) O-NO22.5 70 5 min 11,4 klux 78 W/m
16.02.2016 16:55 6,0 C 8,4 C 5,1 C 53 % 1032,9 hPa 0,0 l/m 9,8 km/h (2 Bft) O22.5 90 5 min 10,1 klux 69 W/m
16.02.2016 16:59 6,0 C 7,7 C 5,1 C 53 % 1032,9 hPa 0,0 l/m 13,2 km/h (3 Bft) O67.5 85 0 min 8,37 klux 57 W/m
16.02.2016 17:05 5,7 C 6,8 C 5,1 C 53 % 1032,9 hPa 0,0 l/m 13,2 km/h (3 Bft) O67.5 85 6 min 7,78 klux 53 W/m
16.02.2016 17:10 5,5 C 5,8 C 5,1 C 54 % 1032,9 hPa 0,0 l/m 9,8 km/h (2 Bft) O-SO22.5 105 5 min 8,15 klux 56 W/m
16.02.2016 17:15 5,2 C 5,3 C 5,1 C 55 % 1032,9 hPa 0,0 l/m 11,4 km/h (2 Bft) O-SO22.5 105 5 min 6,61 klux 45 W/m
16.02.2016 17:19 5,2 C 4,2 C 5,1 C 55 % 1032,9 hPa 0,0 l/m 8,3 km/h (2 Bft) O-SO45 105 4 min 6,33 klux 43 W/m
16.02.2016 17:25 4,7 C 3,1 C 5,1 C 57 % 1032,9 hPa 0,0 l/m 15,5 km/h (3 Bft) O-SO67.5 110 6 min 5,25 klux 36 W/m
16.02.2016 17:30 4,5 C 2,1 C 5,0 C 57 % 1032,9 hPa 0,0 l/m 9,7 km/h (2 Bft) O-SO67.5 115 5 min 4,56 klux 31 W/m
16.02.2016 17:35 4,3 C 1,6 C 5,0 C 57 % 1032,9 hPa 0,0 l/m 9,0 km/h (2 Bft) SO67.5 140 5 min 3,16 klux 22 W/m
16.02.2016 17:40 4,2 C 0,7 C 5,0 C 57 % 1032,9 hPa 0,0 l/m 8,6 km/h (2 Bft) O22.5 90 0 min 1,93 klux 13 W/m
16.02.2016 17:44 3,6 C -0,1 C 5,0 C 59 % 1032,9 hPa 0,0 l/m 13,0 km/h (3 Bft) O22.5 90 0 min 1,05 klux 0 W/m
16.02.2016 17:50 3,5 C -0,4 C 5,0 C 59 % 1032,9 hPa 0,0 l/m 13,4 km/h (3 Bft) O22.5 90 0 min 594 lux 0 W/m
16.02.2016 17:55 3,2 C -0,9 C 5,0 C 58 % 1033,0 hPa 0,0 l/m 13,8 km/h (3 Bft) O22.5 95 0 min 371 lux 0 W/m
16.02.2016 18:00 3,0 C -1,3 C 5,0 C 59 % 1033,0 hPa 0,0 l/m 10,9 km/h (2 Bft) O45 85 0 min 148 lux 0 W/m
16.02.2016 18:05 2,9 C -1,6 C 5,0 C 59 % 1033,0 hPa 0,0 l/m 9,8 km/h (2 Bft) O22.5 80 0 min 107 lux 0 W/m
16.02.2016 18:10 2,9 C -2,0 C 5,0 C 60 % 1033,0 hPa 0,0 l/m 14,3 km/h (3 Bft) O45 80 0 min 55 lux 0 W/m
16.02.2016 18:15 2,8 C -2,3 C 5,0 C 60 % 1033,0 hPa 0,0 l/m 8,9 km/h (2 Bft) O-NO22.5 70 0 min 28 lux 0 W/m
16.02.2016 18:20 2,8 C -2,3 C 4,9 C 60 % 1033,0 hPa 0,0 l/m 12,5 km/h (2 Bft) O-NO22.5 70 0 min 17 lux 0 W/m
16.02.2016 18:25 2,8 C -2,2 C 4,9 C 60 % 1034,0 hPa 0,0 l/m 10,6 km/h (2 Bft) O45 90 0 min 15 lux 0 W/m
16.02.2016 18:29 2,3 C -2,2 C 4,9 C 61 % 1034,0 hPa 0,0 l/m 12,9 km/h (3 Bft) O22.5 85 0 min 9 lux 0 W/m
16.02.2016 18:35 2,3 C -2,1 C 4,9 C 61 % 1034,0 hPa 0,0 l/m 11,1 km/h (2 Bft) NO22.5 50 0 min 5 lux 0 W/m
16.02.2016 18:40 2,3 C -2,3 C 4,9 C 61 % 1034,0 hPa 0,0 l/m 9,8 km/h (2 Bft) O-NO22.5 60 0 min 4 lux 0 W/m
16.02.2016 18:45 2,1 C -2,4 C 4,8 C 61 % 1034,0 hPa 0,0 l/m 11,8 km/h (2 Bft) NO22.5 50 0 min 2 lux 0 W/m
16.02.2016 18:50 2,0 C -2,7 C 4,8 C 61 % 1034,0 hPa 0,0 l/m 9,0 km/h (2 Bft) N-NO 30 0 min 2 lux 0 W/m
16.02.2016 18:54 1,9 C -2,8 C 4,8 C 62 % 1034,0 hPa 0,0 l/m 11,9 km/h (2 Bft) NO22.5 50 0 min 4 lux 0 W/m
16.02.2016 19:00 1,8 C -2,9 C 4,8 C 62 % 1034,0 hPa 0,0 l/m 13,3 km/h (3 Bft) NO22.5 50 0 min 1 lux 0 W/m
16.02.2016 19:05 1,7 C -3,0 C 4,8 C 62 % 1034,0 hPa 0,0 l/m 11,0 km/h (2 Bft) O-NO 75 0 min 0 lux 0 W/m
16.02.2016 19:10 1,7 C -2,9 C 4,8 C 63 % 1033,0 hPa 0,0 l/m 16,6 km/h (3 Bft) O-NO22.5 75 0 min 0 lux 0 W/m
16.02.2016 19:15 1,7 C -2,8 C 4,8 C 63 % 1033,0 hPa 0,0 l/m 17,1 km/h (3 Bft) O22.5 80 0 min 1 lux 0 W/m
16.02.2016 19:20 1,6 C -2,6 C 4,8 C 64 % 1033,0 hPa 0,0 l/m 21,8 km/h (4 Bft) O45 90 0 min 0 lux 0 W/m
16.02.2016 19:25 1,6 C -2,4 C 4,8 C 64 % 1033,0 hPa 0,0 l/m 17,1 km/h (3 Bft) O22.5 80 0 min 0 lux 0 W/m
16.02.2016 19:30 1,6 C -2,6 C 4,8 C 64 % 1033,0 hPa 0,0 l/m 22,2 km/h (4 Bft) O45 90 0 min 0 lux 0 W/m
16.02.2016 19:35 1,5 C -2,8 C 4,8 C 65 % 1033,0 hPa 0,0 l/m 11,5 km/h (2 Bft) O22.5 90 0 min 0 lux 0 W/m
16.02.2016 19:40 1,3 C -2,9 C 4,8 C 65 % 1033,0 hPa 0,0 l/m 15,1 km/h (3 Bft) O45 85 0 min 0 lux 0 W/m
16.02.2016 19:45 1,2 C -3,0 C 4,7 C 66 % 1033,0 hPa 0,0 l/m 19,7 km/h (3 Bft) O22.5 80 0 min 0 lux 0 W/m
16.02.2016 19:50 1,2 C -3,1 C 4,8 C 66 % 1033,0 hPa 0,0 l/m 20,3 km/h (4 Bft) O45 100 0 min 0 lux 0 W/m
16.02.2016 19:55 1,2 C -3,2 C 4,8 C 67 % 1033,0 hPa 0,0 l/m 16,9 km/h (3 Bft) O45 80 0 min 0 lux 0 W/m
16.02.2016 20:00 1,0 C -3,6 C 4,8 C 67 % 1033,0 hPa 0,0 l/m 16,5 km/h (3 Bft) O22.5 90 0 min 0 lux 0 W/m
16.02.2016 20:04 1,0 C -3,7 C 4,7 C 67 % 1033,0 hPa 0,0 l/m 8,4 km/h (2 Bft) O45 90 0 min 0 lux 0 W/m
16.02.2016 20:10 0,8 C -4,2 C 4,7 C 68 % 1033,0 hPa 0,0 l/m 11,8 km/h (2 Bft) O-SO45 105 0 min 0 lux 0 W/m
16.02.2016 20:15 0,7 C -3,9 C 4,7 C 68 % 1033,0 hPa 0,0 l/m 13,1 km/h (3 Bft) O22.5 85 0 min 0 lux 0 W/m
16.02.2016 20:20 0,6 C -4,0 C 4,7 C 69 % 1033,0 hPa 0,0 l/m 11,8 km/h (2 Bft) O22.5 95 0 min 0 lux 0 W/m
16.02.2016 20:25 0,5 C -4,1 C 4,7 C 69 % 1033,0 hPa 0,0 l/m 8,9 km/h (2 Bft) O22.5 90 0 min 0 lux 0 W/m
16.02.2016 20:29 0,3 C -4,4 C 4,7 C 69 % 1033,0 hPa 0,0 l/m 8,5 km/h (2 Bft) O 85 0 min 0 lux 0 W/m
16.02.2016 20:35 0,3 C -4,4 C 4,7 C 69 % 1033,0 hPa 0,0 l/m 13,0 km/h (3 Bft) O-NO22.5 75 0 min 0 lux 0 W/m
16.02.2016 20:40 0,3 C -4,8 C 4,6 C 70 % 1033,0 hPa 0,0 l/m 3,8 km/h (1 Bft) O-NO 75 0 min 0 lux 0 W/m
16.02.2016 20:45 0,1 C -4,8 C 4,6 C 71 % 1033,0 hPa 0,0 l/m 4,8 km/h (1 Bft) O-NO 75 0 min 0 lux 0 W/m
16.02.2016 20:50 0,0 C -5,2 C 4,6 C 71 % 1033,0 hPa 0,0 l/m 9,8 km/h (2 Bft) O-SO45 110 0 min 0 lux 0 W/m
16.02.2016 20:54 -0,2 C -5,2 C 4,6 C 71 % 1033,0 hPa 0,0 l/m 9,3 km/h (2 Bft) O-SO45 110 0 min 0 lux 0 W/m
16.02.2016 21:00 -0,2 C -5,5 C 4,6 C 71 % 1033,0 hPa 0,0 l/m 1,0 km/h (0 Bft) O-SO 105 0 min 0 lux 0 W/m
16.02.2016 21:05 -0,5 C -5,9 C 4,3 C 71 % 1033,0 hPa 0,0 l/m 0,0 km/h (0 Bft) O-SO 105 0 min 0 lux 0 W/m
16.02.2016 21:10 -0,7 C -5,9 C 4,4 C 71 % 1033,0 hPa 0,0 l/m 0,2 km/h (0 Bft) O-SO 105 0 min 0 lux 0 W/m
16.02.2016 21:14 -0,9 C -6,3 C 4,3 C 72 % 1033,0 hPa 0,0 l/m 0,3 km/h (0 Bft) O-SO 105 0 min 0 lux 0 W/m
16.02.2016 21:20 -0,9 C -6,0 C 4,4 C 72 % 1033,0 hPa 0,0 l/m 7,9 km/h (2 Bft) O22.5 95 0 min 0 lux 0 W/m
16.02.2016 21:25 -0,9 C -5,8 C 4,4 C 72 % 1033,0 hPa 0,0 l/m 7,2 km/h (2 Bft) O-SO45 105 0 min 0 lux 0 W/m
16.02.2016 21:30 -0,9 C -5,9 C 4,4 C 73 % 1033,0 hPa 0,0 l/m 1,5 km/h (1 Bft) O-SO22.5 110 0 min 0 lux 0 W/m
16.02.2016 21:35 -0,9 C -5,9 C 4,3 C 73 % 1033,0 hPa 0,0 l/m 0,4 km/h (0 Bft) O 90 0 min 0 lux 0 W/m
16.02.2016 21:39 -0,9 C -6,0 C 4,3 C 73 % 1033,0 hPa 0,0 l/m 0,7 km/h (0 Bft) O 90 0 min 0 lux 0 W/m
16.02.2016 21:45 -1,0 C -6,1 C 4,4 C 74 % 1033,0 hPa 0,0 l/m 2,1 km/h (1 Bft) O 95 0 min 0 lux 0 W/m
16.02.2016 21:50 -1,0 C -6,1 C 4,3 C 74 % 1033,0 hPa 0,0 l/m 4,3 km/h (1 Bft) O 95 0 min 0 lux 0 W/m
16.02.2016 21:55 -1,0 C -5,8 C 4,4 C 74 % 1033,0 hPa 0,0 l/m 10,3 km/h (2 Bft) O22.5 100 0 min 0 lux 0 W/m
16.02.2016 22:00 -1,0 C -5,8 C 4,4 C 75 % 1032,0 hPa 0,0 l/m 10,3 km/h (2 Bft) O22.5 100 0 min 0 lux 0 W/m
16.02.2016 22:05 -0,9 C -5,8 C 4,4 C 75 % 1032,0 hPa 0,0 l/m 8,1 km/h (2 Bft) O22.5 95 0 min 0 lux 0 W/m
16.02.2016 22:10 -1,0 C -5,7 C 4,4 C 75 % 1032,0 hPa 0,0 l/m 8,1 km/h (2 Bft) O22.5 95 0 min 0 lux 0 W/m
16.02.2016 22:15 -1,0 C -5,7 C 4,4 C 75 % 1032,0 hPa 0,0 l/m 8,1 km/h (2 Bft) O22.5 95 0 min 0 lux 0 W/m
16.02.2016 22:20 -1,0 C -5,7 C 4,3 C 76 % 1032,0 hPa 0,0 l/m 9,2 km/h (2 Bft) O-SO45 105 0 min 0 lux 0 W/m
16.02.2016 22:25 -1,0 C -5,7 C 4,3 C 76 % 1032,0 hPa 0,0 l/m 9,2 km/h (2 Bft) O-SO45 105 0 min 0 lux 0 W/m
16.02.2016 22:30 -1,0 C -6,0 C 4,3 C 76 % 1032,0 hPa 0,0 l/m 5,8 km/h (2 Bft) O-SO 110 0 min 0 lux 0 W/m
16.02.2016 22:35 -1,1 C -6,1 C 4,3 C 76 % 1032,0 hPa 0,0 l/m 6,6 km/h (2 Bft) O-SO 105 0 min 0 lux 0 W/m
16.02.2016 22:40 -1,1 C -6,0 C 4,3 C 76 % 1032,0 hPa 0,0 l/m 8,6 km/h (2 Bft) O-SO22.5 105 0 min 0 lux 0 W/m
16.02.2016 22:44 -1,1 C -5,9 C 4,3 C 77 % 1032,0 hPa 0,0 l/m 5,2 km/h (1 Bft) SO22.5 135 0 min 0 lux 0 W/m
16.02.2016 22:50 -1,0 C -5,8 C 4,3 C 77 % 1032,0 hPa 0,0 l/m 11,2 km/h (2 Bft) O-SO22.5 115 0 min 0 lux 0 W/m
16.02.2016 22:55 -1,0 C -5,9 C 4,2 C 77 % 1032,0 hPa 0,0 l/m 11,2 km/h (2 Bft) O-SO22.5 115 0 min 0 lux 0 W/m
16.02.2016 23:00 -1,0 C -5,9 C 4,2 C 77 % 1032,0 hPa 0,0 l/m 7,7 km/h (2 Bft) SO45 140 0 min 0 lux 0 W/m
16.02.2016 23:04 -0,9 C -5,9 C 4,1 C 78 % 1032,0 hPa 0,0 l/m 6,7 km/h (2 Bft) O-SO22.5 115 0 min 0 lux 0 W/m
16.02.2016 23:10 -0,8 C -5,8 C 3,9 C 78 % 1031,0 hPa 0,0 l/m 7,3 km/h (2 Bft) O-SO22.5 110 0 min 0 lux 0 W/m
16.02.2016 23:15 -0,7 C -5,4 C 3,7 C 78 % 1031,0 hPa 0,0 l/m 8,7 km/h (2 Bft) SO22.5 130 0 min 0 lux 0 W/m
16.02.2016 23:20 -0,6 C -5,3 C 3,8 C 77 % 1031,0 hPa 0,0 l/m 7,8 km/h (2 Bft) SO45 130 0 min 0 lux 0 W/m
16.02.2016 23:25 -0,6 C -5,3 C 3,6 C 77 % 1031,0 hPa 0,0 l/m 12,9 km/h (3 Bft) SO45 125 0 min 0 lux 0 W/m
16.02.2016 23:29 -0,6 C -5,2 C 3,5 C 77 % 1031,0 hPa 0,0 l/m 8,7 km/h (2 Bft) SO45 140 0 min 0 lux 0 W/m
16.02.2016 23:35 -0,6 C -5,1 C 3,7 C 76 % 1031,0 hPa 0,0 l/m 9,6 km/h (2 Bft) SO45 135 0 min 0 lux 0 W/m
16.02.2016 23:40 -0,6 C -5,2 C 3,9 C 76 % 1031,0 hPa 0,0 l/m 8,6 km/h (2 Bft) SO22.5 130 0 min 0 lux 0 W/m
16.02.2016 23:45 -0,7 C -5,5 C 4,0 C 76 % 1031,0 hPa 0,0 l/m 1,9 km/h (1 Bft) O-SO45 110 0 min 0 lux 0 W/m
16.02.2016 23:50 -0,7 C -5,7 C 3,9 C 76 % 1031,0 hPa 0,0 l/m 11,0 km/h (2 Bft) SO22.5 125 0 min 0 lux 0 W/m
16.02.2016 23:54 -0,8 C -5,8 C 4,0 C 76 % 1031,0 hPa 0,0 l/m 6,1 km/h (2 Bft) O-SO22.5 115 0 min 0 lux 0 W/m
_ Min-Zeit 08:05 07:25 07:30 15:35 00:00 - 00:20 - - - - -
Minimum _ -2,9 C -7,9 C 3,3 C 49 % 1029,0 hPa - 0,0 km/h (0 Bft) - - - - -
_ Max-Zeit 15:55 12:05 14:55 08:30 10:05 00:00 19:30 - - 09:55 13:15 13:15
Maximum _ 7,0 C 22,9 C 9,8 C 86 % 1035,0 hPa 0,0 l/m 22,2 km/h
O (4 Bft)
- - 6 min 51,7 klux 354 W/m
Durchschnitt _ 0,9 C 2,0 C 4,4 C 73 % 1032,9 hPa #0,0 l/m 6,1 km/h (2 Bft) O - #6:36 h 11,3 klux 188 W/m